Back to catalog

STARLINK-37239

AliveCommunicationsVLEO
NORAD 100018·PAYLOAD·🇺🇸 United States

Launched Jul 14, 2026 from Vandenberg Space Force Base

Loading…

Next Passes (next 24 hours)

TLE

FreshSource: Space-Track

Epoch: Sep 14, 2026, 20:17 UTC

1 A0018U 26160T   26257.84526248  .00313946  00000-0  18095-2 0  9996
2 A0018  70.0020 210.8318 0003066 270.9120  89.1728 15.77643020 11102

Track STARLINK-37239 in real time with AllMySat

Download on the App Store